星链-6189 (STARLINK-6189 )

导读

STARLINK-6189是美国SpaceX公司星链星座的一颗低轨互联网卫星,于2023年5月4日发射,国际编号为2023-061D。该卫星运行在近地点约558公里、远地点约560公里的近圆轨道上,轨道周期约96分钟,倾角约43度,目前在轨正常运行,为全球提供高速低延迟卫星互联网接入服务。

Basic Information
目录编号:
56377
目录名称:
STARLINK-6189
国际标识:
2023-061D
轨道中心:
EARTH
卫星名称:
星链-6189
卫星全名:
星链-6189 (STARLINK-6189 )
卫星状态:
在轨 (已飞行1137 天)
发射日期:
2023-05-04 UTC
国别 :
美国 (US)
星等 :
--
Orbit Information
数据来源 国际轨道数据
星历时间: 2026-06-14T14:21:02+0800
15小时前
查看轨道信息
半长轴: 6861.2km
偏心率: 0.0001136
轨道倾角: 43.004°
近地点辐角 270.351°
升交点赤经 13.002°
平近点角 89.721°
近地点: 482.283km
远地点: 483.843km
周期: 94.267分钟
每日圈数: 15.275754
Detailed Information
固有亮度:
5
最大亮度:
2.5
卫星平台:
Starlink v1.5
覆盖范围:
全球
运营商:
太空探索技术公司
运营商所在国:
美国
制造商(研发单位):
太空探索技术公司
制造商所在国:
美国
使用方式:
暂无
Satellite Introduction
星链(Starlink)计划是由太空探索技术公司(SpaceX)提出的一个巨型低轨卫星互联网星座项目,计划在2019年至2024年间在太空搭建由约1.2万颗卫星组成的“星链”网络,其中1584颗将部署在地球上空550千米处的近地轨道,并从2020年开始工作。该卫星仍在工作。
2D Orbit Map
3D Orbit Map
Orbit Altitude Analysis Chart
Orbit Inclination Analysis Chart
Orbit Comprehensive Analysis Chart
View Comprehensive Chart